Погода в Новоукраинке

Украина / Ровненская область     50°36′08″N   25°31′31″E
темп.,
°C
ветер,
м/с
пор.,
м/с
влажн.,
%
обл.,
%
осадки,
мм/ч
давл.,
гПа
погр.,
м
13 мая, чт
чт1300:00+7юв310815 0.0 1011226
03:00+6вюв39845 0.0 1009176
06:00+6юв41186100 0.0 1007220
09:00+11юв697371 0.0 1005563
12:00+14ююв7868100 0.0 10041239
15:00+13ююв5778100 0.1 1003697
18:00+14ю2584100 0.1 1002191
21:00+12юв459798 3.1 1003143
14 мая, пт
пт1400:00+11ююв5119598 0.4 1003345
03:00+10ююв4109672 0.4 1003269
06:00+9ююв3797100 0.0 1003149
09:00+13ю5781100 0.0 1003335
12:00+15юз587577 0.8 1004881
15:00+17зюз676458 2.0 10041358
18:00+16з677116 0.2 10051085
21:00+10зюз4109053 0.2 1006333
15 мая, сб
сб1500:00+11зюз598783 0.0 1007364
03:00+11зюз4995100 0.1 1007537
06:00+11зсз51093100 0.3 1008535
09:00+11з4892100 0.3 1010431
12:00+14зюз5673100 0.0 1011925
15:00+16з5664100 0.1 10111367
18:00+16з246023 0.0 10111130
21:00+12ююв22755 0.0 101110
16 мая, вс
вс1600:00+10ююв338475 0.0 101137
03:00+10юв368579 0.0 1011102
06:00+10юв3988100 0.0 1011171
09:00+14юв5977100 0.0 1011390
12:00+18ююв5768100 0.1 10101084
15:00+20ююв576197 1.4 10081486
18:00+18ююв5973100 1.3 1007798
21:00+13ююз41191100 3.2 1008318
17 мая, пн
пн1700:00+13зюз2596100 1.5 1008161
03:00+12зюз3798100 1.5 1008237
06:00+11з259992 1.1 1009238
09:00+14зсз2384100 1.2 1010504
12:00+17зсз456858 0.1 10091156
15:00+19сз335644 0.2 10081520
18:00+19зсз2359100 0.0 1008974
21:00+14с117747 0.0 100811